STARLINK-11490, 62219

Orbit data source: Space-Track

STARLINK-11490, 62219 is a payload satellite owned by SpaceX/Seattle (US) in LEO that was launched on Thu, 05 Dec 2024 UTC via an FALCON 9 launch vehicle from the Air Force Western Test Range (AFWTR). Payload-class satellites include a variety of spacecraft equipped with specific instruments for various scientific and technological missions. These include communications satellites like Starlink; space stations such as the ISS; scientific satellites like the Hubble; Earth observation satellites from companies like Planet Labs, Umbra, and HawkEye 360; GPS; miniature CubeSats for education and research; and military/defense satellites.

Loading next visibility...
Identifier
62219, 2024-231B
Orbit
LEO
Last TLE update
8 hours ago
Origin
Manufacturer
SpaceX/Seattle
Mission
Operational Commercial Communications
Bus & Motor
STARLINK V2M, Unknown motor
Mass
730 kg wet, ~700 kg dry
Launch date (UTC)
2024-12-05 (7 months ago)
Launch vehicle
FALCON 9
Launch site
Air Force Western Test Range (AFWTR)
Object type
Payload
Rocket body
Debris
Shape & HBR
Box + 2 Pan, 14.5 m
Radar Cross Section
36.964 m², Large (>1 m²)

Expand to show TLE details & history

TLE from 8 hours ago
0 STARLINK-11490
1 62219U 24231B   25199.66076630  .00194372  00000-0  15691-2 0  9992
2 62219  53.1571 175.0163 0001172  91.8006 268.3147 15.69753198 36668
Epoch: 2025-07-18T15:51Z
TLE epoch observation values (Epoch: 2025-07-18T15:51:30.208Z)
Latitude
0.00006°
Longitude
0.43145°
Altitude
360.541 km
Speed
7.694 km/s
True Right ascension
11h 40m 03s
True Declination
0° 00' 00"
Sunlit
Object was in daylight at epoch
Visualization orbit readout
Latitude
-6.10686°
Longitude
-5.70413°
Altitude
361.305 km
Speed
7.693 km/s
Apparent Right ascension
09h 04m 22s
Apparent Declination
-63° 54' 03"
Sunlit
Object is in daylight
Visualization observer readout
Local Sidereal Time
12:15:34
Azimuth
200.355° SSW
Elevation
-20.462°
Doppler factor
1
Orbital elements
Apogee altitude
360.654 km
Perigee altitude
359.075 km
Semi-major axis
6,738.001 km
Eccentricity
0.00012
Inclination
53.1571°
RAAN
175.0163°
Arg. of periapsis
91.8006°
True anomaly
268.30128°
Mean anomaly
268.3147°
Eccentric anomaly
268.30799°
Mean motion
3.92416 °/min
Orbital period
91.74 mins
BSTAR
0.0015691
Loading maneuver chart data...
Loading SW <> Apogee altitude chart data...
Loading historical data...
Loading historical data...
Loading historical data...
Loading historical data...
Loading historical data...
Loading historical data...
Loading historical data...
|